Location: Bouillancy
(49.1149°N, 2.9308°E)
Time: 11:30:33
(UTC+00:00)

Meteor 2-10 - Pass Details

Date: 30 September 2020
Orbit: 737 x 869 km, 81.2° (Epoch: 29 October)

Event Time Altitude Azimuth Distance (km) Brightness Sun altitude
Exits shadow 19:35:02 27° 164° (SSE) 1,510 5.2 -21.2°
Maximum altitude 19:37:51 58° 96° (E) 934 4.1 -21.6°
Drops below altitude 10° 19:43:00 10° 19° (NNE) 2,341 6.5 -22.4°
Sets 19:45:22 0° 16° (NNE) 3,254 7.3 -22.8°
